Location: Unspecified
(49.2170°N, 0.0000°E)
Time: 20:49:01
(UTC+00:00)

Vanguard 3 - All Passes

Search period start: 21 January 2021 00:00
Search period end: 31 January 2021 00:00
Orbit: 508 x 3262 km, 33.3° (Epoch: 21 January)

Date Brightness Start Highest point End Pass type
(mag) Time Alt. Az. Time Alt. Az. Time Alt. Az.
21 Jan - 03:32:05 10° S 03:37:19 19° SE 03:44:31 10° ESE visible
21 Jan - 05:39:57 10° SW 05:48:22 36° SSE 06:01:42 10° ESE visible
21 Jan - 07:50:29 10° WSW 08:01:15 38° S 08:17:01 10° SE daylight
21 Jan - 10:03:30 10° WSW 10:14:50 25° SSW 10:28:45 10° SSE daylight
22 Jan - 04:27:23 10° SSW 04:34:07 28° SSE 04:44:25 10° ESE visible
22 Jan - 06:36:51 10° WSW 06:46:04 38° S 07:00:29 10° ESE visible
22 Jan - 08:48:25 10° WSW 08:59:20 31° SSW 09:14:12 10° SSE daylight
22 Jan - 11:04:29 10° WSW 11:12:36 15° SW 11:21:39 10° S daylight
23 Jan - 03:15:44 10° S 03:20:27 18° SE 03:26:53 10° ESE visible
23 Jan - 05:23:44 10° SW 05:31:23 34° S 05:43:34 10° ESE visible
23 Jan - 07:34:15 10° WSW 07:44:01 34° S 07:58:32 10° SE daylight
23 Jan - 09:47:26 10° WSW 09:57:19 22° SSW 10:09:35 10° S daylight
24 Jan - 04:11:12 10° SSW 04:17:16 27° SSE 04:26:32 10° ESE visible
24 Jan - 06:20:41 10° WSW 06:29:02 35° S 06:42:09 10° SE visible
24 Jan - 08:32:18 10° WSW 08:42:01 27° SSW 08:55:21 10° SSE daylight
24 Jan - 10:50:02 10° WSW 10:55:05 12° SW 11:00:35 10° SSW daylight
25 Jan - 02:59:29 10° S 03:03:41 17° SSE 03:09:19 10° ESE visible
25 Jan - 05:07:38 10° SW 05:14:31 32° S 05:25:27 10° ESE visible
25 Jan - 07:18:08 10° WSW 07:26:53 30° SSW 07:39:55 10° SE daylight
25 Jan - 09:31:46 10° WSW 09:39:57 18° SSW 09:50:01 10° S daylight
26 Jan - 03:55:06 10° SW 04:00:32 25° SSE 04:08:42 10° ESE visible
26 Jan - 06:04:38 10° WSW 06:12:07 31° S 06:23:47 10° SE visible
26 Jan - 08:16:23 10° WSW 08:24:50 23° SSW 08:36:17 10° SSE daylight
27 Jan - 02:43:20 10° S 02:47:00 17° SSE 02:51:50 10° ESE visible
27 Jan - 04:51:36 10° SW 04:57:46 29° S 05:07:23 10° ESE visible
27 Jan - 07:02:12 10° WSW 07:09:55 26° SSW 07:21:12 10° SE visible
27 Jan - 09:16:45 10° WSW 09:22:42 14° SSW 09:29:45 10° S daylight
28 Jan - 03:39:04 10° SW 03:43:53 23° SSE 03:50:57 10° ESE visible
28 Jan - 05:48:41 10° WSW 05:55:19 27° S 06:05:25 10° SE visible
28 Jan - 08:00:49 10° WSW 08:07:46 19° SSW 08:16:55 10° SSE daylight
29 Jan - 02:27:16 10° S 02:30:25 15° SSE 02:34:26 10° ESE visible
29 Jan - 04:35:41 10° SW 04:41:08 25° S 04:49:22 10° SE visible
29 Jan - 06:46:27 10° WSW 06:53:02 22° SSW 07:02:22 10° SSE visible
29 Jan - 09:04:40 10° SW 09:05:36 10° SSW 09:06:33 10° SSW daylight
30 Jan - 03:23:08 10° SW 03:27:21 21° SSE 03:33:17 10° ESE visible
30 Jan - 05:32:54 10° SW 05:38:38 23° S 05:47:01 10° SE visible
30 Jan - 07:45:47 10° SW 07:50:51 14° SSW 07:57:04 10° S daylight
